Location: *
(58.4167°N, 22.5000°E)
Time: 20:17:39
(UTC+00:00)

SJ-11-01 - Pass Details

Date: 22 September 2019
Orbit: 684 x 702 km, 98.0° (Epoch: 16 October)

Event Time Altitude Azimuth Distance (km) Brightness Sun altitude
Rises 17:21:59 0° 155° (SSE) 3,082 7.3 -7.5°
Reaches altitude 10° 17:24:14 10° 153° (SSE) 2,167 6.5 -7.8°
Maximum altitude 17:28:58 73° 70° (ENE) 739 4.3 -8.4°
Drops below altitude 10° 17:33:43 10° 346° (NNW) 2,174 7.3 -9.0°
Sets 17:35:59 0° 345° (NNW) 3,093 8.1 -9.3°
